Location: Newark
(51.3318°N, 0.0053°E)
Time: 08:38:23
(UTC+00:00)

CAS-6 - Pass Details

Date: 06 July 2022
Orbit: 613 x 634 km, 97.9° (Epoch: 09 August)

Event Time Altitude Azimuth Distance (km) Brightness Sun altitude
Exits shadow 23:12:22 12° 220° (SW) 1,891 ? -15.2°
Maximum altitude 23:15:25 22° 268° (W) 1,369 ? -15.3°
Drops below altitude 10° 23:18:48 10° 320° (NW) 1,997 ? -15.4°
Sets 23:21:26 0° 335° (NNW) 2,905 ? -15.4°
